Pasco, WA
on Wednesday, November 7, 2012

Wednesday
Previous Day Next Day
Daily Summary
 ActualAverageRecord
Temperature
Mean Temperature °F 44°F  
Max Temperature 60°F 55°F 69°F (2006)
Min Temperature 34°F 34°F 15°F (2003)
Degree Days
Heating Degree Days 18 21  
Month to date heating degree days 87 138  
Since 1 July heating degree days 531 656  
Cooling Degree Days 0 0  
Month to date cooling degree days 0 0  
Year to date cooling degree days 788 710  
Moisture
Dew Point 39°F   
Average Humidity 63    
Maximum Humidity 93    
Minimum Humidity 33    
Precipitation
Precipitation 0.02 in 0.03 in 0.36 in (1980)
Month to date precipitation 0.10 0.21  
Year to date precipitation 7.56 6.74  
Snow
Snow 0.00 in in in ()
Snow Depth 0.00 in   
Wind
Wind Speed 4 mph   
Max Wind Speed 15 mph   
Max Gust Speed 20 mph   
Visibility 10 miles   
Events Rain   

Key: T is trace of precipitation, MM is missing value
Source: NWS Daily Summary
Time(PST)TemperatureDew PointHumidity Pressure Visibility Wind DirectionWind SpeedGust SpeedPrecipitationEvents Conditions
12:53 AM 51.1°F 48.9°F 92% 29.94 in 8.0 miles NNW 3.5 mph - N/A   Overcast
1:53 AM 54.0°F 48.0°F 80% 29.95 in 10.0 miles West 5.8 mph - N/A   Overcast
2:53 AM 54.0°F 46.0°F 75% 29.98 in 10.0 miles Calm Calm - 0.01 in Rain Light Rain
3:46 AM 51.8°F 48.2°F 88% 30.00 in 10.0 miles SSW 4.6 mph - 0.01 in Rain Light Rain
3:53 AM 52.0°F 48.0°F 86% 30.01 in 10.0 miles Calm Calm - 0.01 in   Overcast
4:23 AM 51.8°F 48.2°F 88% 30.00 in 10.0 miles Calm Calm - N/A   Overcast
4:53 AM 51.1°F 46.9°F 86% 30.01 in 10.0 miles SSE 6.9 mph - N/A   Scattered Clouds
5:53 AM 46.0°F 44.1°F 93% 30.04 in 10.0 miles North 3.5 mph - N/A   Clear
6:53 AM 45.0°F 41.0°F 86% 30.07 in 10.0 miles Calm Calm - N/A   Clear
7:53 AM 44.1°F 42.1°F 93% 30.10 in 10.0 miles ENE 3.5 mph - N/A   Clear
8:53 AM 51.1°F 41.0°F 68% 30.10 in 10.0 miles SSW 6.9 mph - N/A   Clear
9:53 AM 54.0°F 39.9°F 59% 30.09 in 10.0 miles SSW 10.4 mph - N/A   Clear
10:53 AM 55.9°F 37.9°F 51% 30.09 in 10.0 miles SW 6.9 mph - N/A   Clear
11:53 AM 57.9°F 37.0°F 46% 30.07 in 10.0 miles WSW 12.7 mph - N/A   Clear
12:53 PM 59.0°F 35.1°F 41% 30.06 in 10.0 miles WNW 6.9 mph - N/A   Clear
1:53 PM 60.1°F 32.0°F 35% 30.05 in 10.0 miles West 11.5 mph - N/A   Partly Cloudy
3:53 PM 57.9°F 28.9°F 33% 30.05 in 10.0 miles Calm Calm - N/A   Clear
4:53 PM 51.1°F 36.0°F 56% 30.04 in 10.0 miles SW 8.1 mph - N/A   Clear
5:53 PM 48.9°F 35.1°F 59% 30.04 in 10.0 miles SW 8.1 mph - N/A   Clear
6:53 PM 46.0°F 35.1°F 66% 30.03 in 10.0 miles East 4.6 mph - N/A   Clear
7:53 PM 39.9°F 34.0°F 79% 30.01 in 10.0 miles Calm Calm - N/A   Clear
8:53 PM 37.9°F 34.0°F 86% 30.00 in 10.0 miles North 5.8 mph - N/A   Clear
9:53 PM 35.1°F 33.1°F 92% 29.99 in 10.0 miles Calm Calm - N/A   Scattered Clouds
10:53 PM 35.1°F 33.1°F 92% 29.97 in 10.0 miles Calm Calm - N/A   Mostly Cloudy
11:53 PM 34.0°F 32.0°F 92% 29.96 in 10.0 miles Calm Calm - N/A   Mostly Cloudy
Moon Phase
Nov. 07 Nov. 13 Nov. 20 Nov. 28 Dec. 06
Sunrise:06:47 AM (PST) Moon Rise:No Moon Rise/
Sunset:04:32 PM (PST) Moon Set:01:05 PM (PST)11/7

Copyright © 2014 The Weather Underground, Inc.